DW9628 Weather Reports


time (UTC)temp
C
wind
direction
speed
KPH
gust
KPH
rain 1hr
cm
rain 24hr
cm
rain mn
cm
humidity
%
barometer
mb
20260505200019 18 271 0.0 0.0 0.00 0.00 0.00 36 991.7
20260505194522 18 252 0.0 0.0 0.00 0.00 0.00 36 991.7
20260505193030 18 184 0.0 0.0 0.00 0.00 0.00 37 991.7
20260505191522 18 244 0.0 0.0 0.00 0.00 0.00 37 991.7
20260505190016 17 238 0.0 0.0 0.00 0.00 0.00 36 991.9
20260505184515 17 344 0.0 0.0 0.00 0.00 0.00 37 991.9
20260505183017 17 209 0.0 0.0 0.00 0.00 0.00 40 991.9
20260505181513 17 223 0.0 0.0 0.00 0.00 0.00 43 992.1
20260505180009 16 217 0.0 0.0 0.00 0.00 0.00 40 992.1
20260505174508 16 191 0.0 0.0 0.00 0.00 0.00 44 992.2
20260505173007 16 208 0.0 0.0 0.00 0.00 0.00 41 992.3
20260505171508 16 220 0.0 0.0 0.00 0.00 0.00 43 992.3
20260505170005 15 212 0.0 0.0 0.00 0.00 0.00 47 992.3
20260505164506 15 227 0.0 0.0 0.00 0.00 0.00 47 992.2
20260505163008 14 219 0.0 0.0 0.00 0.00 0.00 47 992.2
20260505161504 13 221 0.0 0.0 0.00 0.00 0.00 51 992.1
20260505153113 13 244 0.0 0.0 0.00 0.00 0.00 52 991.8
20260505151558 13 272 0.0 0.0 0.00 0.00 0.00 49 991.8
20260505114531 13 333 0.0 0.0 0.00 0.00 0.00 45 989.9
20260505113033 13 333 0.0 0.0 0.00 0.00 0.00 46 989.8
20260505111529 13 332 0.0 0.0 0.00 0.00 0.00 46 989.8
20260505101527 15 325 0.0 0.0 0.00 0.00 0.00 39 989.4
20260505100026 15 311 0.0 0.0 0.00 0.00 0.00 41 989.3
20260505094525 13 310 0.0 0.0 0.00 0.00 0.00 44 989.4
20260505093023 14 310 0.0 0.0 0.00 0.00 0.00 43 989.3
20260505091521 15 310 0.0 0.0 0.00 0.00 0.00 41 989.3
20260505090020 14 301 0.0 0.0 0.00 0.00 0.00 42 989.3
20260505084534 15 273 0.0 0.0 0.00 0.00 0.00 39 989.4
20260505083015 15 272 0.0 0.0 0.00 0.00 0.00 38 989.5
20260505081518 15 281 0.0 0.0 0.00 0.00 0.00 37 989.6
20260505080012 16 283 0.0 0.0 0.00 0.00 0.00 38 989.7
20260505074512 16 236 0.0 0.0 0.00 0.00 0.00 39 989.7
20260505073010 15 212 0.0 0.0 0.00 0.00 0.00 41 989.8
20260505071508 16 201 0.0 0.0 0.00 0.00 0.00 39 989.8
20260505070006 16 184 0.0 0.0 0.00 0.00 0.00 40 989.9
20260505064505 16 155 0.0 0.0 0.00 0.00 0.00 38 989.7
20260505063005 16 5 0.0 0.0 0.00 0.00 0.00 37 989.7
20260505061507 16 5 0.0 0.0 0.00 0.00 0.00 37 989.7
20260505060004 16 5 0.0 0.0 0.00 0.00 0.00 36 989.7
20260505054504 16 355 0.0 0.0 0.00 0.00 0.00 36 989.4
20260505053005 16 351 0.0 0.0 0.00 0.00 0.00 37 989.5
20260505051503 17 355 0.0 0.0 0.00 0.00 0.00 38 989.4
20260505041503 17 350 0.0 0.0 0.00 0.00 0.00 37 988.6
20260505040001 17 360 0.0 0.0 0.00 0.00 0.00 38 988.4
20260505034619 17 355 0.0 0.0 0.00 0.00 0.00 37 988.0
20260505033108 18 61 0.0 0.0 0.00 0.00 0.00 36 987.7
20260505031559 18 5 0.0 0.0 0.00 0.00 0.00 35 987.4
20260505024559 18 342 0.0 0.0 0.00 0.00 0.00 33 987.2
20260505023102 19 350 0.0 0.0 0.00 0.00 0.00 33 987.2
20260505021600 19 336 0.0 0.0 0.00 0.00 0.00 33 987.0
20260505020100 20 323 0.0 0.0 0.00 0.00 0.00 33 987.2
20260505014556 20 334 0.0 0.0 0.00 0.00 0.00 29 987.1
20260505013056 21 331 0.0 0.0 0.00 0.00 0.00 27 987.3
20260505011610 21 340 0.0 0.0 0.00 0.00 0.00 27 987.5
20260505010054 21 9 0.0 0.0 0.00 0.00 0.00 26 987.3
20260505004604 21 355 0.0 0.0 0.00 0.00 0.00 27 987.5
20260505003056 21 5 0.0 0.0 0.00 0.00 0.00 26 987.4
20260505001606 21 5 0.0 0.0 0.00 0.00 0.00 25 987.5
20260505000106 21 11 0.0 0.0 0.00 0.00 0.00 26 987.5
20260504234556 21 5 0.0 0.0 0.00 0.00 0.00 25 987.6
20260504233103 21 232 0.0 0.0 0.00 0.00 0.00 30 987.2
20260504231549 22 123 0.0 0.0 0.00 0.00 0.00 30 987.6
20260504230047 22 349 0.0 0.0 0.00 0.00 0.00 18 987.8
20260504224545 22 314 0.0 0.0 0.00 0.00 0.00 20 987.8
20260504223042 21 34 0.0 0.0 0.00 0.00 0.00 33 988.0
20260504221542 21 64 0.0 0.0 0.00 0.00 0.00 30 988.1
20260504220040 21 46 0.0 0.0 0.00 0.00 0.00 32 988.3
20260504214540 21 113 0.0 0.0 0.00 0.00 0.00 29 988.3
20260504213038 21 157 0.0 0.0 0.00 0.00 0.00 30 988.3
20260504211535 21 68 0.0 0.0 0.00 0.00 0.00 33 988.5
20260504210035 20 74 0.0 0.0 0.00 0.00 0.00 34 988.6
20260504204531 21 150 0.0 0.0 0.00 0.00 0.00 34 988.7
20260504203030 20 204 0.0 0.0 0.00 0.00 0.00 34 988.9
20260504201528 20 267 0.0 0.0 0.00 0.00 0.00 35 988.9